Terminal Aerodrome Forecast
Issued by NWS Sioux Falls, SD

Home | Current Version | Previous Version | Graphics & Text | Print | Product List | Glossary On
Versions: 1 2 3 4 5 6 7 8 9 10 11 12 13 14 15 16 17 18 19 20
000
FTUS43 KFSD 040606 RRA
TAFHON
TAF
KHON 040606Z 0406/0506 16013KT P6SM SCT005 SCT150
      TEMPO 0406/0408 BKN005
     FM040800 22007KT P6SM BKN080
     FM041400 26008KT P6SM SCT100
     FM041800 25007KT P6SM BKN250=

USA.gov is the U.S. government's official web portal to all federal, state and local government web resources and services.